BREEZE-M R/B, 55842

Orbit data source: Space-Track

BREEZE-M R/B, 55842 is space debris in GEO originally from a launch on Sun, 12 Mar 2023 UTC launched from the Tyuratam Missile And Space Complex (TTMTR). Debris objects in space refer to the collection of defunct objects orbiting the Earth. Examples of debris include non-operational satellites, rocket bodies, and fragments generated from explosions, collisions, or faulty payload assembly.

Not visible in the next 10 days
Identifier
55842, 2023-031B
Orbit
GEO
Last TLE update
1 day ago
Origin
Manufacturer
Khrunichev
Mission
Spacecraft
Bus & Motor
BRIZ, Unknown motor
Mass
~1,600 kg wet, 1,600 kg dry
Launch date (UTC)
2023-03-12 (2 years ago)
Launch vehicle
Unknown
Launch site
Tyuratam Missile And Space Complex (TTMTR)
Object type
Payload
Rocket body
Debris
Shape & HBR
Cyl, 4 m
Radar Cross Section
4.000 m²

Expand to show TLE details & history

TLE from 1 day ago
0 BREEZE-M R/B
1 55842U 23031B   25183.33090954  .00000050  00000-0  00000-0 0  9990
2 55842   1.9163  83.5774 0068642   1.7990 357.7358  0.98960152  8312
Epoch: 2025-07-02T07:56Z
TLE epoch observation values (Epoch: 2025-07-02T07:56:30.584Z)
Latitude
-0°
Longitude
43.34962°
Altitude
35,865.083 km
Speed
3.082 km/s
True Right ascension
05h 32m 21s
True Declination
0° 00' 00"
Sunlit
Object was in daylight at epoch
Visualization orbit readout
Latitude
1.9294°
Longitude
132.69278°
Altitude
36,139.819 km
Speed
3.063 km/s
Apparent Right ascension
11h 44m 09s
Apparent Declination
-3° 14' 58"
Sunlit
Object is in daylight
Visualization observer readout
Local Sidereal Time
01:56:22
Azimuth
47.816° ENE
Elevation
-42.703°
Doppler factor
1
Orbital elements
Apogee altitude
36,451.395 km
Perigee altitude
35,867.422 km
Semi-major axis
42,537.545 km
Eccentricity
0.00686
Inclination
1.9163°
RAAN
83.5774°
Arg. of periapsis
1.799°
True anomaly
Unknown
Mean anomaly
357.7358°
Eccentric anomaly
Unknown
Mean motion
0.24739 °/min
Orbital period
1,455.18 mins
BSTAR
0
Loading historical data...
55842 neighbors
Loading maneuver chart data...
Loading SW <> Apogee altitude chart data...
Loading historical data...
Loading historical data...
Loading historical data...
Loading historical data...
Loading historical data...
Loading historical data...
Loading historical data...
Other satellites on launch #31 in the year 2023 (2023-03-12 UTC)

BREEZE-M R/B Visibility

Observer location: undefined°, undefined°

BREEZE-M R/B is likely not visible in the next few days
Span
Click to sort rows by Start time (UTC) header in descending order
Start Az.
Max El. time (UTC)
Max El. Az.
Max El.
End time (UTC)
End Az.
|